• Join FlightAware (Why Join?)
  • Login
  • US Flag GB Flag 
13:32 EST


 

Airport Tracker/Info


-or-


 

Live Flight TrackerFlight Track Log ✈ SWA1044 ✈ 12-Apr-2013 ✈ KMSP - KMCI

Flight Track Log - Related Links

Times and Time Zones

All times are in EDT time to prevent confusion due to time zone crossing. See the SWA1044 flight status page for this flight to view local times or setup timezone preferences in your user account.

Time Position Orientation Groundspeed Altitude Reporting Facility
EDT Latitude Longitude Course Direction KTS MPH feet Rate Location/Type
08:22 44.8950 -93.2533 271° West 182 209 2,500  Level FAA TRACON SMA TRACON (SMA)
08:22 44.8956 -93.2842 271° West 212 244 4,100 4,200 Climbing FAA TRACON SMA TRACON (SMA)
08:23 44.8922 -93.3086 259° West 211 243 5,300 3,300 Climbing FAA TRACON SMA TRACON (SMA)
08:23 44.8850 -93.3425 253° West 232 267 6,300 3,000 Climbing FAA TRACON SMA TRACON (SMA)
08:23 44.8700 -93.3650 227° Southwest 257 296 7,300 3,420 Climbing FAA TRACON SMA TRACON (SMA)
08:24 44.8483 -93.3775 202° Southwest 273 314 8,600 4,020 Climbing FAA TRACON SMA TRACON (SMA)
08:24 44.8211 -93.3922 201° Southwest 273 314 10,000 3,600 Climbing FAA TRACON SMA TRACON (SMA)
08:24 44.7981 -93.4044 201° Southwest 283 326 11,000 2,700 Climbing FAA TRACON SMA TRACON (SMA)
08:25 44.7747 -93.4200 205° Southwest 297 342 11,800 2,520 Climbing FAA TRACON SMA TRACON (SMA)
08:25 44.7425 -93.4392 203° Southwest 323 372 12,700 2,700 Climbing FAA TRACON SMA TRACON (SMA)
08:25 44.7150 -93.4547 202° Southwest 341 392 13,600 2,700 Climbing FAA TRACON SMA TRACON (SMA)
08:26 44.6872 -93.4717 203° Southwest 354 407 14,500 3,300 Climbing FAA TRACON SMA TRACON (SMA)
08:26 44.6503 -93.4922 202° Southwest 368 423 15,800 3,600 Climbing FAA TRACON SMA TRACON (SMA)
08:26 44.6211 -93.5094 203° Southwest 372 428 16,900 3,600 Climbing FAA TRACON SMA TRACON (SMA)
08:27 44.5911 -93.5267 202° Southwest 376 433 18,200 3,900 Climbing FAA TRACON SMA TRACON (SMA)
08:27 44.5539 -93.5494 204° Southwest 380 437 19,500 3,420 Climbing FAA TRACON SMA TRACON (SMA)
08:27 44.5233 -93.5667 202° Southwest 384 442 20,500 2,820 Climbing FAA TRACON SMA TRACON (SMA)
08:28 44.4928 -93.5847 203° Southwest 388 447 21,400 2,820 Climbing FAA TRACON SMA TRACON (SMA)
08:28 44.4542 -93.6075 203° Southwest 393 452 22,400 2,520 Climbing FAA TRACON SMA TRACON (SMA)
08:28 44.4225 -93.6264 203° Southwest 398 458 23,100 2,220 Climbing FAA TRACON SMA TRACON (SMA)
08:29 44.3919 -93.6492 208° Southwest 403 464 23,900 2,700 Climbing FAA TRACON SMA TRACON (SMA)
08:29 44.3544 -93.6806 211° Southwest 408 470 24,900 2,880 Climbing FAA TRACON SMA TRACON (SMA)
08:29 44.3244 -93.7058 211° Southwest 411 473 25,800 2,400 Climbing FAA TRACON SMA TRACON (SMA)
08:30 44.2939 -93.7314 211° Southwest 415 478 26,500 2,340 Climbing FAA TRACON SMA TRACON (SMA)
08:30 44.2547 -93.7619 209° Southwest 419 482 27,400 2,520 Climbing FAA TRACON SMA TRACON (SMA)
08:30 44.2228 -93.7867 209° Southwest 424 488 28,200 2,100 Climbing FAA TRACON SMA TRACON (SMA)
08:31 44.1922 -93.8142 213° Southwest 426 490 28,800 1,620 Climbing FAA TRACON SMA TRACON (SMA)
08:31 44.1514 -93.8456 209° Southwest 435 501 29,300 1,500 Climbing FAA TRACON SMA TRACON (SMA)
08:31 44.1186 -93.8725 211° Southwest 442 509 29,800 1,500 Climbing FAA TRACON SMA TRACON (SMA)
08:32 44.0856 -93.9000 211° Southwest 448 516 30,300 1,920 Climbing FAA TRACON SMA TRACON (SMA)
08:32 44.0439 -93.9347 211° Southwest 453 521 31,100 2,280 Climbing FAA TRACON SMA TRACON (SMA)
08:33 43.9561 -93.9989 208° Southwest 450 518 33,000 2,280 Climbing Minneapolis Center
08:34 43.8508 -94.0822 210° Southwest 444 511 35,400 1,440 Climbing Minneapolis Center
08:35 43.7392 -94.1358 199° South 433 498 36,000 240 Climbing Minneapolis Center
08:36 43.6142 -94.1514 185° South 449 517 36,000  Level Minneapolis Center
08:37 43.4778 -94.1711 186° South 449 517 36,000  Level Minneapolis Center
08:38 43.3564 -94.1892 186° South 446 513 36,000  Level Minneapolis Center
08:39 43.2333 -94.2067 186° South 447 514 36,000  Level Minneapolis Center
08:40 43.1119 -94.2242 186° South 443 510 36,000  Level Minneapolis Center
08:41 42.9914 -94.2408 186° South 440 506 36,000 180 Level Minneapolis Center
08:42 42.8700 -94.2581 186° South 441 507 36,400 840 Climbing Minneapolis Center
08:43 42.7475 -94.2772 187° South 445 512 37,800 780 Climbing Minneapolis Center
08:44 42.6281 -94.2944 186° South 439 505 38,000 60 Climbing Minneapolis Center
08:45 42.4925 -94.3472 196° South 426 490 38,000  Level Minneapolis Center
08:46 42.3772 -94.3914 196° South 427 491 38,000  Level Minneapolis Center
08:47 42.2642 -94.4417 198° South 428 493 38,000  Level Minneapolis Center
08:48 42.1731 -94.4806 198° South 427 491 38,000  Level Minneapolis Center
08:49 42.0367 -94.5375 197° South 427 491 38,000  Level Minneapolis Center
08:50 41.9231 -94.5844 197° South 425 489 38,000  Level Minneapolis Center
08:51 41.8325 -94.6228 198° South 426 490 38,000  Level Minneapolis Center
08:52 41.6969 -94.6792 197° South 424 488 38,000 -540 Level Minneapolis Center
08:53 41.5822 -94.7258 197° South 427 491 37,000 -960 Descending Minneapolis Center
08:54 41.4681 -94.7739 198° South 427 491 36,100 -960 Descending Minneapolis Center
08:55 41.3567 -94.8189 197° South 421 484 35,100 -1,140 Descending Minneapolis Center
08:56 41.2236 -94.8747 198° South 416 479 33,900 -1,140 Descending Minneapolis Center
08:57 41.1111 -94.9197 197° South 417 480 32,900 -1,020 Descending Minneapolis Center
08:58 40.9997 -94.9656 197° South 418 481 31,900 -1,080 Descending Minneapolis Center
08:59 40.8867 -95.0103 197° South 420 483 30,800 -1,080 Descending Minneapolis Center
09:00 40.7786 -95.0553 198° South 414 476 29,800 -1,140 Descending Minneapolis Center
09:01 40.6739 -95.0967 197° South 401 461 28,500 -1,620 Descending Minneapolis Center
09:02 40.5725 -95.1378 197° South 390 449 26,500 -1,920 Descending Minneapolis Center
09:03 40.4739 -95.1775 197° South 377 434 24,600 -1,920 Descending Minneapolis Center
09:04 40.3786 -95.2150 197° South 363 418 22,700 -1,860 Descending Minneapolis Center
09:05 40.2850 -95.2525 197° South 356 410 20,800 -1,860 Descending Minneapolis Center
09:06 40.1944 -95.2892 197° South 346 398 19,000 -1,860 Descending Minneapolis Center
09:07 40.1069 -95.3231 197° South 334 384 17,100 -1,920 Descending Minneapolis Center
09:08 40.0294 -95.3514 196° South 325 374 15,500 -1,920 Descending Kansas City Center
09:09 39.9339 -95.3889 197° South 321 369 13,500 -1,740 Descending Kansas City Center
09:10 39.8519 -95.4139 193° South 320 368 12,000 -780 Descending Kansas City Center
09:11 39.7744 -95.3431 145° Southeast 356 410 12,000  Level Kansas City Center
09:12 39.6867 -95.2547 142° Southeast 357 411 12,000  Level Kansas City Center
09:13 39.6125 -95.1764 141° Southeast 357 411 12,000  Level Kansas City Center
09:14 39.5256 -95.0889 142° Southeast 353 406 12,000  Level Kansas City Center
09:15 39.4542 -95.0133 141° Southeast 345 397 12,000  Level Kansas City Center
09:16 39.4308 -94.9000 105° East 344 396 12,000 -240 Level Kansas City Center
09:17 39.4164 -94.7694 98° East 324 373 11,600 -1,080 Descending Kansas City Center
09:18 39.4050 -94.6636 98° East 311 358 9,800 -1,680 Descending Kansas City Center
09:19 39.3947 -94.5589 97° East 306 352 8,200 -1,680 Descending Kansas City Center
09:21 39.3819 -94.4439 98° East 289 333 6,400 -1,440 Descending Kansas City Center
09:22 39.3333 -94.3989 144° Southeast 268 308 5,300 -1,080 Descending Kansas City Center
09:23 39.2667 -94.4344 202° Southwest 238 274 4,200 -1,080 Descending Kansas City Center